• en Suisse
  • Liste des pays
  • À 7 jours
  • Température de l'eau
  • Carte satellitaire
  • Carte météo
  • Widgets météo
  • user-avatar
    Se connecter

    Météo par heure à Kalemie

    Ce jour, 22 Septembre, Samedi

    Heure Température Précipitation Vent Pression Humidité
    00:00 +25°C° 0 mm 1 m/s 705 mmHg 69%
    01:00 +25°C° 0 mm 1 m/s 704 mmHg 71%
    02:00 +24°C° 0 mm 1 m/s 704 mmHg 73%
    03:00 +24°C° 0.1 mm 1 m/s 704 mmHg 76%
    04:00 +23°C° 0.1 mm 1 m/s 704 mmHg 78%
    05:00 +23°C° 0.1 mm 1 m/s 705 mmHg 81%
    06:00 +24°C° 0.1 mm 1 m/s 705 mmHg 79%
    07:00 +25°C° 0.1 mm 2 m/s 706 mmHg 76%
    08:00 +26°C° 0.1 mm 2 m/s 706 mmHg 74%
    09:00 +29°C° 0 mm 2 m/s 706 mmHg 64%
    10:00 +31°C° 0 mm 2 m/s 707 mmHg 55%
    11:00 +35°C° 0 mm 2 m/s 707 mmHg 45%
    12:00 +35°C° 0 mm 2 m/s 706 mmHg 42%
    13:00 +36°C° 0 mm 2 m/s 705 mmHg 39%
    14:00 +37°C° 0 mm 2 m/s 705 mmHg 36%
    15:00 +36°C° 0 mm 2 m/s 704 mmHg 41%
    16:00 +35°C° 0 mm 2 m/s 704 mmHg 46%
    17:00 +33°C° 0 mm 1 m/s 704 mmHg 51%
    18:00 +31°C° 0 mm 1 m/s 704 mmHg 55%
    19:00 +29°C° 0 mm 1 m/s 704 mmHg 60%
    20:00 +27°C° 0 mm 1 m/s 704 mmHg 64%
    21:00 +26°C° 0.2 mm 1 m/s 704 mmHg 69%
    22:00 +26°C° 0.2 mm 1 m/s 704 mmHg 73%
    23:00 +25°C° 0.2 mm 1 m/s 704 mmHg 77%

    Demain, 23 Septembre, Dimanche

    Heure Température Précipitation Vent Pression Humidité
    00:00 +24°C° 0.5 mm 1 m/s 704 mmHg 82%
    01:00 +23°C° 0.5 mm 1 m/s 704 mmHg 86%
    02:00 +23°C° 0.5 mm 1 m/s 704 mmHg 91%
    03:00 +23°C° 0.1 mm 1 m/s 704 mmHg 91%
    04:00 +22°C° 0.1 mm 1 m/s 704 mmHg 92%
    05:00 +22°C° 0.1 mm 1 m/s 704 mmHg 92%
    06:00 +24°C° 0.1 mm 1 m/s 705 mmHg 87%
    07:00 +25°C° 0.1 mm 1 m/s 706 mmHg 83%
    08:00 +27°C° 0.1 mm 1 m/s 706 mmHg 78%
    09:00 +29°C° 0 mm 1 m/s 706 mmHg 66%
    10:00 +32°C° 0 mm 2 m/s 707 mmHg 55%
    11:00 +35°C° 0 mm 3 m/s 707 mmHg 43%
    12:00 +36°C° 0 mm 2 m/s 706 mmHg 40%
    13:00 +37°C° 0 mm 2 m/s 705 mmHg 37%
    14:00 +38°C° 0 mm 2 m/s 704 mmHg 34%
    15:00 +37°C° 0 mm 2 m/s 704 mmHg 39%
    16:00 +35°C° 0 mm 1 m/s 704 mmHg 44%
    17:00 +34°C° 0 mm 1 m/s 703 mmHg 48%
    18:00 +32°C° 0 mm 1 m/s 704 mmHg 51%
    19:00 +30°C° 0 mm 1 m/s 704 mmHg 54%
    20:00 +26°C° 0 mm 0 m/s 704 mmHg 57%
    21:00 +26°C° 0 mm 0 m/s 704 mmHg 60%
    22:00 +25°C° 0 mm 0 m/s 704 mmHg 63%
    23:00 +24°C° 0 mm 0 m/s 704 mmHg 65%

    Après-demain, 24 Septembre, Lundi

    Heure Température Précipitation Vent Pression Humidité
    00:00 +24°C° 0.2 mm 0 m/s 704 mmHg 70%
    01:00 +25°C° 0.2 mm 1 m/s 704 mmHg 74%
    02:00 +24°C° 0.2 mm 1 m/s 703 mmHg 79%
    03:00 +24°C° 0.3 mm 1 m/s 703 mmHg 82%
    04:00 +23°C° 0.3 mm 1 m/s 703 mmHg 86%
    05:00 +23°C° 0.3 mm 1 m/s 703 mmHg 90%
    06:00 +24°C° 0 mm 1 m/s 704 mmHg 85%
    07:00 +26°C° 0 mm 1 m/s 705 mmHg 81%
    08:00 +27°C° 0 mm 1 m/s 706 mmHg 76%
    09:00 +30°C° 0.2 mm 1 m/s 706 mmHg 66%
    10:00 +33°C° 0.2 mm 1 m/s 706 mmHg 55%
    11:00 +36°C° 0.2 mm 1 m/s 707 mmHg 45%
    12:00 +36°C° 0 mm 1 m/s 706 mmHg 44%
    13:00 +36°C° 0 mm 1 m/s 705 mmHg 43%
    14:00 +35°C° 0 mm 1 m/s 704 mmHg 43%
    15:00 +34°C° 0 mm 1 m/s 704 mmHg 47%
    16:00 +33°C° 0 mm 1 m/s 703 mmHg 51%
    17:00 +32°C° 0 mm 1 m/s 703 mmHg 56%
    18:00 +29°C° 0 mm 0 m/s 703 mmHg 59%
    19:00 +27°C° 0 mm 0 m/s 703 mmHg 62%
    20:00 +25°C° 0 mm 0 m/s 704 mmHg 65%
    21:00 +25°C° 0 mm 0 m/s 704 mmHg 67%
    22:00 +24°C° 0 mm 0 m/s 704 mmHg 69%
    23:00 +24°C° 0 mm 0 m/s 704 mmHg 71%

    25 Septembre, Mardi

    Heure Température Précipitation Vent Pression Humidité
    00:00 +25°C° 0.6 mm 1 m/s 704 mmHg 76%
    01:00 +24°C° 0.6 mm 1 m/s 704 mmHg 82%
    02:00 +23°C° 0.6 mm 2 m/s 703 mmHg 87%
    03:00 +23°C° 0.6 mm 1 m/s 704 mmHg 90%
    04:00 +23°C° 0.6 mm 1 m/s 704 mmHg 93%
    05:00 +22°C° 0.6 mm 1 m/s 704 mmHg 96%
    06:00 +23°C° 0 mm 1 m/s 705 mmHg 93%
    07:00 +24°C° 0 mm 1 m/s 706 mmHg 91%
    08:00 +25°C° 0 mm 2 m/s 707 mmHg 88%
    09:00 +27°C° 0.7 mm 2 m/s 707 mmHg 80%
    10:00 +29°C° 0.7 mm 2 m/s 707 mmHg 73%
    11:00 +31°C° 0.7 mm 2 m/s 707 mmHg 65%
    12:00 +32°C° 0.3 mm 2 m/s 706 mmHg 60%
    13:00 +32°C° 0.3 mm 2 m/s 705 mmHg 55%
    14:00 +33°C° 0.3 mm 1 m/s 704 mmHg 50%
    15:00 +32°C° 0 mm 1 m/s 704 mmHg 53%
    16:00 +32°C° 0 mm 1 m/s 704 mmHg 57%
    17:00 +31°C° 0 mm 1 m/s 704 mmHg 61%
    18:00 +29°C° 0 mm 1 m/s 704 mmHg 65%
    19:00 +28°C° 0 mm 1 m/s 704 mmHg 68%
    20:00 +26°C° 0 mm 1 m/s 705 mmHg 72%
    21:00 +26°C° 0 mm 1 m/s 705 mmHg 75%
    22:00 +25°C° 0 mm 1 m/s 704 mmHg 77%
    23:00 +25°C° 0 mm 2 m/s 704 mmHg 80%

    26 Septembre, Mercredi

    Heure Température Précipitation Vent Pression Humidité
    00:00 +24°C° 0 mm 2 m/s 704 mmHg 82%
    01:00 +24°C° 0 mm 1 m/s 704 mmHg 85%
    02:00 +23°C° 0 mm 1 m/s 704 mmHg 87%
    03:00 +23°C° 0 mm 1 m/s 704 mmHg 88%
    04:00 +23°C° 0 mm 1 m/s 704 mmHg 88%
    05:00 +23°C° 0 mm 1 m/s 704 mmHg 89%
    06:00 +24°C° 0.5 mm 1 m/s 705 mmHg 86%
    07:00 +25°C° 0.5 mm 1 m/s 706 mmHg 82%
    08:00 +26°C° 0.5 mm 1 m/s 707 mmHg 78%
    09:00 +28°C° 0.8 mm 1 m/s 707 mmHg 73%
    10:00 +30°C° 0.8 mm 1 m/s 707 mmHg 68%
    11:00 +32°C° 0.8 mm 1 m/s 707 mmHg 63%
    12:00 +32°C° 1.1 mm 1 m/s 706 mmHg 59%
    13:00 +32°C° 1.1 mm 1 m/s 705 mmHg 56%
    14:00 +32°C° 1.1 mm 1 m/s 705 mmHg 53%
    15:00 +31°C° 0 mm 1 m/s 704 mmHg 58%
    16:00 +30°C° 0 mm 1 m/s 704 mmHg 63%
    17:00 +29°C° 0 mm 1 m/s 704 mmHg 68%
    18:00 +28°C° 0 mm 1 m/s 704 mmHg 70%
    19:00 +27°C° 0 mm 1 m/s 704 mmHg 73%
    20:00 +26°C° 0 mm 1 m/s 705 mmHg 76%
    21:00 +25°C° 0 mm 1 m/s 705 mmHg 77%
    22:00 +25°C° 0 mm 1 m/s 705 mmHg 78%
    23:00 +24°C° 0 mm 1 m/s 705 mmHg 80%

    27 Septembre, Jeudi

    Heure Température Précipitation Vent Pression Humidité
    00:00 +24°C° 0 mm 1 m/s 704 mmHg 81%
    01:00 +24°C° 0 mm 1 m/s 704 mmHg 83%
    02:00 +23°C° 0 mm 1 m/s 704 mmHg 84%
    03:00 +23°C° 0 mm 1 m/s 704 mmHg 86%
    04:00 +23°C° 0 mm 1 m/s 704 mmHg 88%
    05:00 +22°C° 0 mm 1 m/s 704 mmHg 90%
    06:00 +24°C° 0 mm 1 m/s 705 mmHg 85%
    07:00 +25°C° 0 mm 1 m/s 706 mmHg 80%
    08:00 +26°C° 0 mm 1 m/s 707 mmHg 76%
    09:00 +29°C° 0 mm 1 m/s 707 mmHg 66%
    10:00 +31°C° 0 mm 0 m/s 707 mmHg 57%
    11:00 +34°C° 0 mm 0 m/s 707 mmHg 47%
    12:00 +34°C° 0 mm 0 m/s 706 mmHg 45%
    13:00 +34°C° 0 mm 0 m/s 705 mmHg 43%
    14:00 +34°C° 0 mm 0 m/s 704 mmHg 41%
    15:00 +33°C° 0 mm 0 m/s 704 mmHg 45%
    16:00 +32°C° 0 mm 0 m/s 704 mmHg 49%
    17:00 +31°C° 0 mm 0 m/s 704 mmHg 54%
    18:00 +29°C° 0 mm 0 m/s 704 mmHg 56%
    19:00 +30°C° 0 mm 1 m/s 704 mmHg 58%
    20:00 +28°C° 0 mm 1 m/s 705 mmHg 61%
    21:00 +27°C° 0 mm 1 m/s 704 mmHg 64%
    22:00 +27°C° 0 mm 1 m/s 704 mmHg 68%
    23:00 +26°C° 0 mm 1 m/s 704 mmHg 71%
    Voir plus